Tracking 30510 objects as of 22-May-2025
HD Live streaming from Space Station
objects crossing your sky now

STARLINK-1591

Track STARLINK-1591 now!
10-day predictions
STARLINK-1591 is classified as:


NORAD ID: 46045
Int'l Code: 2020-055U
Perigee: 553.3 km
Apogee: 555.4 km
Inclination: 53.1 °
Period: 95.6 minutes
Semi major axis: 6925 km
RCS: Unknown
Launch date: August 7, 2020
Source: United States (US)
Launch site: AIR FORCE EASTERN TEST RANGE (AFETR)
Your satellite tracking list
Your tracking list is empty




NASA's NSSDC Master Catalog

Two Line Element Set (TLE):
1 46045U 20055U   25141.85781603  .00002587  00000-0  19257-3 0  9991
2 46045  53.0543 356.7016 0001497  86.8661 273.2499 15.06393358264398
Source of the keplerian elements: AFSPC